Showing default

CAS500-1, 47932

Orbit data source: Space-Track

CAS500-1, 47932 is a payload satellite owned by KARI (KR) in SSO that was launched on Mon, 22 Mar 2021 UTC via a SOYUZ-2-1A launch vehicle from the Tyuratam Missile And Space Complex (TTMTR). Payload-class satellites include a variety of spacecraft equipped with specific instruments for various scientific and technological missions. These include communications satellites like Starlink; space stations such as the ISS; scientific satellites like the Hubble; Earth observation satellites from companies like Planet Labs, Umbra, and HawkEye 360; GPS; miniature CubeSats for education and research; and military/defense satellites.

Loading next visibility...
Identifier
47932, 2021-022A
Orbit
SSO
Country
Flag of KRKR / SKOR
Related business
Manufacturer
KAI
Mission
Operational Civil Imaging
Bus & Motor
CAS500, Unknown motor
Mass
~500 kg wet, ~480 kg dry
Launch date (UTC)
2021-03-22 (5 years ago)
Launch vehicle
SOYUZ-2-1A
Launch site
Tyuratam Missile And Space Complex (TTMTR)
Object type
Payload
Rocket body
Debris
Shape & HBR
Box + 4 Pan, 3.0 m
Radar Cross Section
11.517 m², Large (>1 m²)

Expand to show TLE details & history
Last TLE update: 1 day ago

TLE from 1 day ago
0 CAS500-1
1 47932U 21022A   26172.53913600  .00004767  00000-0  22335-3 0  9999
2 47932  97.3894  67.7042 0003219 277.4521  82.6348 15.20173434291425
Epoch: 2026-06-21T12:56Z
TLE epoch observation values (Epoch: 2026-06-21T12:56:21.350Z)
Latitude
-0.00006°
Longitude
-36.12271°
Altitude
508.125 km
Speed
7.61 km/s
True Right ascension
04h 30m 49s
True Declination
0° 00' 00"
Sunlit
Object was in daylight at epoch
Visualization orbit readout
Latitude
Unknown
Longitude
Unknown
Altitude
Unknown
Speed
Unknown
Apparent Right ascension
Unknown
Apparent Declination
Unknown
Sunlit
N/A
Visualization observer readout
Local Sidereal Time
00:51:17
Azimuth
Unknown
Elevation
Unknown
Doppler factor
Unknown
Orbital elements
Apogee altitude
504.497 km
Perigee altitude
500.067 km
Semi-major axis
6,880.419 km
Eccentricity
0.00032
Inclination
97.3894°
RAAN
67.7042°
Arg. of periapsis
277.4521°
True anomaly
82.67138°
Mean anomaly
82.6348°
Eccentric anomaly
82.65309°
Mean motion
3.80295 °/min
Orbital period
94.66 mins
BSTAR
0.00022335
Loading maneuver chart data...
Computing Atmospheric mass density...

Documentation

Showing up to 5 results
|